SAS1213 EKCH-EKYT

Flight info

Callsign SAS1213
Flight time 0h 30m
Altitude 16000
Route GOLGA T506 LAPMA L621 AAL
Aircraft A320/M-SDE3FGHIJ1RWXYZ/ALB1

Departure

Time 2026-04-26 10:10
Airport Copenhagen Kastrup Airport (EKCH)

Arrival

Time 2026-04-26 10:40
Airport Aalborg Airport (EKYT)
Time Latitude Longitude Altitude Speed Heading
2026-04-26 09:37 55.62716 12.65325 17 ft 0 kts 17°
2026-04-26 09:52 55.62684 12.65309 17 ft 3 kts 16°
2026-04-26 09:52 55.62666 12.65300 20 ft 3 kts 359°
2026-04-26 09:53 55.62647 12.65305 17 ft 3 kts 340°
2026-04-26 09:53 55.62628 12.65318 19 ft 3 kts 347°
2026-04-26 09:53 55.62608 12.65322 17 ft 3 kts
2026-04-26 09:53 55.62595 12.65322 20 ft 1 kts 359°
2026-04-26 09:55 55.62588 12.65322 20 ft 2 kts 359°
2026-04-26 09:55 55.62571 12.65323 19 ft 2 kts 359°
2026-04-26 09:55 55.62554 12.65324 18 ft 2 kts 359°
2026-04-26 09:55 55.62538 12.65324 19 ft 2 kts 359°
2026-04-26 09:56 55.62522 12.65325 18 ft 1 kts 359°
2026-04-26 10:01 55.62531 12.65325 17 ft 3 kts 359°
2026-04-26 10:02 55.62587 12.65322 17 ft 13 kts 359°
2026-04-26 10:02 55.62649 12.65256 19 ft 10 kts 276°
2026-04-26 10:02 55.62597 12.65195 17 ft 10 kts 182°
2026-04-26 10:02 55.62521 12.65200 18 ft 12 kts 178°
2026-04-26 10:03 55.62433 12.65204 17 ft 14 kts 179°
2026-04-26 10:03 55.62336 12.65208 17 ft 14 kts 179°
2026-04-26 10:03 55.62243 12.65199 17 ft 14 kts 184°
2026-04-26 10:03 55.62153 12.65118 19 ft 16 kts 213°
2026-04-26 10:04 55.62056 12.65006 18 ft 17 kts 213°
2026-04-26 10:04 55.61951 12.64885 17 ft 20 kts 212°
2026-04-26 10:04 55.61828 12.64745 17 ft 22 kts 213°
2026-04-26 10:04 55.61693 12.64589 19 ft 24 kts 213°
2026-04-26 10:05 55.61552 12.64426 17 ft 22 kts 213°
2026-04-26 10:05 55.61463 12.64324 17 ft 24 kts 213°
2026-04-26 10:05 55.61318 12.64157 18 ft 26 kts 213°
2026-04-26 10:05 55.61158 12.63973 17 ft 24 kts 213°
2026-04-26 10:06 55.61032 12.63828 17 ft 20 kts 213°
2026-04-26 10:06 55.60911 12.63689 18 ft 21 kts 213°
2026-04-26 10:06 55.60809 12.63573 17 ft 16 kts 214°
2026-04-26 10:06 55.60712 12.63459 18 ft 18 kts 213°
2026-04-26 10:07 55.60604 12.63320 17 ft 21 kts 221°
2026-04-26 10:07 55.60496 12.63221 19 ft 16 kts 163°
2026-04-26 10:07 55.60463 12.63267 17 ft 0 kts 131°
2026-04-26 10:08 55.60462 12.63268 17 ft 1 kts 131°
2026-04-26 10:08 55.60456 12.63281 17 ft 0 kts 131°
2026-04-26 10:08 55.60454 12.63284 17 ft 1 kts 131°
2026-04-26 10:09 55.60436 12.63323 18 ft 8 kts 131°
2026-04-26 10:09 55.60410 12.63425 18 ft 10 kts 85°
2026-04-26 10:09 55.60437 12.63499 17 ft 4 kts 38°
2026-04-26 10:09 55.60615 12.63784 18 ft 71 kts 42°
2026-04-26 10:10 55.61149 12.64599 17 ft 129 kts 40°
2026-04-26 10:10 55.61893 12.65780 265 ft 150 kts 40°
2026-04-26 10:10 55.62690 12.67051 852 ft 154 kts 37°
2026-04-26 10:10 55.63505 12.68311 1487 ft 161 kts 37°
2026-04-26 10:11 55.64408 12.69696 1792 ft 183 kts 37°
2026-04-26 10:11 55.65511 12.71034 2061 ft 202 kts 12°
2026-04-26 10:11 55.66954 12.70916 2444 ft 221 kts 343°
2026-04-26 10:11 55.68508 12.70157 3009 ft 240 kts 343°
2026-04-26 10:12 55.70174 12.69640 3919 ft 246 kts 353°
2026-04-26 10:12 55.71888 12.69424 4894 ft 248 kts 356°
2026-04-26 10:12 55.73620 12.69304 5876 ft 250 kts 357°
2026-04-26 10:12 55.75367 12.69199 6811 ft 253 kts 357°
2026-04-26 10:13 55.77135 12.69078 7703 ft 255 kts 356°
2026-04-26 10:13 55.78935 12.68933 8636 ft 256 kts 355°
2026-04-26 10:13 55.80690 12.68466 9536 ft 256 kts 340°
2026-04-26 10:13 55.82243 12.66944 10413 ft 257 kts 321°
2026-04-26 10:14 55.83386 12.64485 11212 ft 263 kts 302°
2026-04-26 10:14 55.84128 12.61414 11675 ft 281 kts 296°
2026-04-26 10:14 55.84885 12.58050 11849 ft 304 kts 296°
2026-04-26 10:14 55.85686 12.54444 12192 ft 319 kts 296°
2026-04-26 10:15 55.86503 12.50737 12849 ft 324 kts 296°
2026-04-26 10:15 55.87326 12.46983 13532 ft 327 kts 296°
2026-04-26 10:15 55.88157 12.43189 14237 ft 330 kts 296°
2026-04-26 10:15 55.88994 12.39364 14892 ft 332 kts 296°
2026-04-26 10:16 55.89843 12.35517 15546 ft 334 kts 297°
2026-04-26 10:16 55.90932 12.31889 16107 ft 332 kts 307°
2026-04-26 10:16 55.92254 12.28532 16282 ft 331 kts 308°
2026-04-26 10:16 55.93619 12.25104 16324 ft 349 kts 308°
2026-04-26 10:17 55.95063 12.21485 16325 ft 365 kts 308°
2026-04-26 10:17 55.96541 12.17756 16327 ft 370 kts 308°
2026-04-26 10:17 55.98022 12.13990 16351 ft 371 kts 308°
2026-04-26 10:17 55.99499 12.10212 16326 ft 370 kts 308°
2026-04-26 10:18 56.00970 12.06446 16332 ft 370 kts 308°
2026-04-26 10:18 56.02475 12.02728 16328 ft 368 kts 312°
2026-04-26 10:18 56.04271 11.99499 16305 ft 366 kts 321°
2026-04-26 10:18 56.06381 11.96935 16326 ft 368 kts 330°
2026-04-26 10:19 56.08518 11.94412 16327 ft 369 kts 320°
2026-04-26 10:19 56.10429 11.91333 16329 ft 370 kts 319°
2026-04-26 10:19 56.12335 11.88233 16336 ft 370 kts 319°
2026-04-26 10:19 56.14239 11.85120 16337 ft 370 kts 319°
2026-04-26 10:20 56.16140 11.82002 16337 ft 370 kts 318°
2026-04-26 10:20 56.17421 11.79898 16334 ft 370 kts 318°
2026-04-26 10:20 56.19962 11.75719 16334 ft 370 kts 318°
2026-04-26 10:20 56.21858 11.72596 16339 ft 370 kts 318°
2026-04-26 10:21 56.23754 11.69463 16338 ft 370 kts 318°
2026-04-26 10:21 56.25646 11.66335 16338 ft 370 kts 318°
2026-04-26 10:21 56.27540 11.63197 16337 ft 370 kts 318°
2026-04-26 10:21 56.29433 11.60054 16337 ft 370 kts 318°
2026-04-26 10:22 56.31322 11.56914 16354 ft 370 kts 318°
2026-04-26 10:22 56.33209 11.53771 16349 ft 369 kts 318°
2026-04-26 10:22 56.35095 11.50628 16325 ft 370 kts 318°
2026-04-26 10:22 56.36982 11.47483 16322 ft 370 kts 318°
2026-04-26 10:23 56.38873 11.44326 16321 ft 370 kts 318°
2026-04-26 10:23 56.40763 11.41166 16322 ft 371 kts 318°
2026-04-26 10:23 56.42656 11.37998 16322 ft 371 kts 318°
2026-04-26 10:23 56.44543 11.34827 16323 ft 371 kts 318°
2026-04-26 10:24 56.46432 11.31646 16324 ft 371 kts 318°
2026-04-26 10:24 56.48323 11.28464 16325 ft 371 kts 318°
2026-04-26 10:24 56.50214 11.25284 16326 ft 371 kts 318°
2026-04-26 10:24 56.52074 11.22154 16110 ft 359 kts 318°
2026-04-26 10:25 56.53869 11.19123 15783 ft 347 kts 318°
2026-04-26 10:25 56.55610 11.16172 15385 ft 338 kts 318°
2026-04-26 10:25 56.57311 11.13288 14996 ft 333 kts 318°
2026-04-26 10:25 56.58998 11.10432 14609 ft 331 kts 318°
2026-04-26 10:26 56.60675 11.07586 14231 ft 330 kts 318°
2026-04-26 10:26 56.62345 11.04744 13836 ft 328 kts 318°
2026-04-26 10:26 56.64004 11.01919 13408 ft 325 kts 318°
2026-04-26 10:26 56.65674 10.99079 12979 ft 324 kts 318°
2026-04-26 10:27 56.67314 10.96287 12564 ft 322 kts 318°
2026-04-26 10:27 56.68945 10.93503 12150 ft 321 kts 318°
2026-04-26 10:27 56.70570 10.90724 11743 ft 320 kts 317°
2026-04-26 10:27 56.72189 10.87950 11340 ft 319 kts 317°
2026-04-26 10:28 56.73799 10.85185 10945 ft 318 kts 317°
2026-04-26 10:28 56.75402 10.82422 10554 ft 317 kts 317°
2026-04-26 10:28 56.77002 10.79665 10159 ft 314 kts 317°
2026-04-26 10:28 56.78565 10.76967 9726 ft 306 kts 317°
2026-04-26 10:29 56.80098 10.74320 9292 ft 301 kts 317°
2026-04-26 10:29 56.81606 10.71723 8865 ft 296 kts 317°
2026-04-26 10:29 56.83091 10.69164 8442 ft 289 kts 317°
2026-04-26 10:29 56.84514 10.66709 8101 ft 273 kts 317°
2026-04-26 10:30 56.85852 10.64393 7805 ft 258 kts 317°
2026-04-26 10:30 56.87134 10.62171 7500 ft 252 kts 317°
2026-04-26 10:30 56.88401 10.59974 7180 ft 251 kts 317°
2026-04-26 10:30 56.89663 10.57783 6879 ft 251 kts 317°
2026-04-26 10:31 56.90930 10.55578 6568 ft 250 kts 316°
2026-04-26 10:31 56.92185 10.53390 6246 ft 248 kts 316°
2026-04-26 10:31 56.93415 10.51243 5928 ft 241 kts 316°
2026-04-26 10:31 56.94614 10.49150 5615 ft 236 kts 316°
2026-04-26 10:32 56.95788 10.47100 5303 ft 230 kts 316°
2026-04-26 10:32 56.96935 10.45096 4985 ft 225 kts 316°
2026-04-26 10:32 56.98056 10.43137 4661 ft 220 kts 316°
2026-04-26 10:32 56.99159 10.41207 4337 ft 219 kts 316°
2026-04-26 10:33 57.00262 10.39282 4019 ft 219 kts 316°
2026-04-26 10:33 57.01368 10.37347 3708 ft 220 kts 315°
2026-04-26 10:33 57.02490 10.35378 3376 ft 220 kts 315°
2026-04-26 10:33 57.03596 10.33431 3056 ft 220 kts 315°
2026-04-26 10:34 57.04697 10.31495 2737 ft 219 kts 316°
2026-04-26 10:34 57.05792 10.29570 2519 ft 214 kts 316°
2026-04-26 10:34 57.06842 10.27721 2496 ft 206 kts 316°
2026-04-26 10:34 57.07870 10.25916 2497 ft 203 kts 316°
2026-04-26 10:35 57.08890 10.24121 2498 ft 203 kts 316°
2026-04-26 10:35 57.09906 10.22329 2497 ft 202 kts 316°
2026-04-26 10:35 57.10891 10.20487 2498 ft 202 kts 306°
2026-04-26 10:35 57.11445 10.18143 2496 ft 199 kts 278°
2026-04-26 10:36 57.11404 10.15695 2528 ft 188 kts 263°
2026-04-26 10:36 57.11258 10.13340 2496 ft 184 kts 264°
2026-04-26 10:36 57.11115 10.11011 2472 ft 183 kts 264°
2026-04-26 10:36 57.10972 10.08684 2309 ft 183 kts 263°
2026-04-26 10:37 57.10831 10.06425 2081 ft 170 kts 263°
2026-04-26 10:37 57.10700 10.04326 1880 ft 161 kts 263°
2026-04-26 10:37 57.10576 10.02333 1650 ft 153 kts 263°
2026-04-26 10:37 57.10456 10.00420 1443 ft 149 kts 263°
2026-04-26 10:38 57.10337 9.98537 1229 ft 147 kts 263°
2026-04-26 10:38 57.10261 9.97324 1089 ft 141 kts 263°
2026-04-26 10:38 57.10150 9.95568 894 ft 136 kts 263°
2026-04-26 10:38 57.10040 9.93830 705 ft 135 kts 262°
2026-04-26 10:39 57.09932 9.92128 536 ft 134 kts 262°
2026-04-26 10:39 57.09823 9.90433 372 ft 133 kts 262°
2026-04-26 10:39 57.09711 9.88740 199 ft 133 kts 262°
2026-04-26 10:39 57.09605 9.87055 42 ft 132 kts 262°
2026-04-26 10:40 57.09509 9.85554 17 ft 97 kts 263°
2026-04-26 10:40 57.09448 9.84600 18 ft 55 kts 264°
2026-04-26 10:40 57.09411 9.84035 17 ft 36 kts 262°
2026-04-26 10:40 57.09390 9.83690 15 ft 23 kts 263°
2026-04-26 10:41 57.09359 9.83421 17 ft 19 kts 230°
2026-04-26 10:41 57.09275 9.83452 16 ft 8 kts 137°
2026-04-26 10:41 57.09258 9.83482 17 ft 0 kts 134°
2026-04-26 10:41 57.09258 9.83483 17 ft 0 kts 134°
2026-04-26 10:42 57.09238 9.83520 17 ft 10 kts 134°
2026-04-26 10:42 57.09200 9.83647 18 ft 13 kts 96°
2026-04-26 10:42 57.09209 9.83826 19 ft 15 kts 83°
2026-04-26 10:42 57.09223 9.84043 17 ft 19 kts 83°
2026-04-26 10:43 57.09239 9.84301 16 ft 22 kts 84°
2026-04-26 10:43 57.09258 9.84599 16 ft 25 kts 83°
2026-04-26 10:43 57.09278 9.84915 16 ft 23 kts 83°
2026-04-26 10:43 57.09297 9.85204 18 ft 23 kts 83°
2026-04-26 10:44 57.09315 9.85487 20 ft 23 kts 83°
2026-04-26 10:44 57.09333 9.85760 18 ft 20 kts 83°
2026-04-26 10:44 57.09323 9.85928 19 ft 11 kts 128°
2026-04-26 10:44 57.09255 9.86019 19 ft 13 kts 144°
2026-04-26 10:45 57.09183 9.86121 18 ft 14 kts 142°
2026-04-26 10:45 57.09103 9.86232 18 ft 15 kts 143°
2026-04-26 10:45 57.09016 9.86354 18 ft 16 kts 141°
2026-04-26 10:45 57.08927 9.86483 18 ft 17 kts 142°
2026-04-26 10:46 57.08832 9.86620 18 ft 18 kts 141°
2026-04-26 10:46 57.08730 9.86768 18 ft 17 kts 142°
2026-04-26 10:46 57.08642 9.86909 19 ft 16 kts 137°
2026-04-26 10:46 57.08585 9.87008 19 ft 7 kts 136°
2026-04-26 10:47 57.08583 9.87030 19 ft 1 kts 65°
2026-04-26 10:47 57.08593 9.87056 19 ft 5 kts 54°
2026-04-26 10:47 57.08607 9.87091 19 ft 1 kts 54°
2026-04-26 10:47 57.08610 9.87099 19 ft 0 kts 54°
2026-04-26 10:53 57.08610 9.87100 19 ft 0 kts 54°